CFC3436 EGPK-ENGM

Flight info

Callsign CFC3436
Flight time 1h 27m
Altitude 39000
Route SUMIN Z250 HAVEN DCT SAB DCT ALOTI DCT ADOPI
Aircraft A332/H-SDE3GHIJ2J3J5M1RVWXY/LB2D1

Departure

Time 2026-05-05 01:04
Airport Glasgow Prestwick Airport (EGPK)

Arrival

Time 2026-05-05 02:32
Airport Oslo-Gardermoen International Airport (ENGM)
Time Latitude Longitude Altitude Speed Heading
2026-05-05 00:51 55.51191 -4.58806 50 ft 0 kts 159°
2026-05-05 00:57 55.51183 -4.58801 50 ft 2 kts 159°
2026-05-05 00:57 55.51159 -4.58783 49 ft 5 kts 157°
2026-05-05 00:57 55.51125 -4.58758 45 ft 6 kts 157°
2026-05-05 00:58 55.51086 -4.58728 46 ft 7 kts 157°
2026-05-05 00:58 55.51065 -4.58712 49 ft 0 kts 157°
2026-05-05 00:58 55.51057 -4.58711 50 ft 5 kts 173°
2026-05-05 00:58 55.51022 -4.58792 49 ft 12 kts 249°
2026-05-05 00:59 55.50979 -4.58983 47 ft 21 kts 245°
2026-05-05 00:59 55.50927 -4.59169 46 ft 13 kts 243°
2026-05-05 00:59 55.50870 -4.59244 50 ft 8 kts 162°
2026-05-05 00:59 55.50839 -4.59167 48 ft 10 kts 121°
2026-05-05 01:00 55.50789 -4.59017 49 ft 18 kts 121°
2026-05-05 01:00 55.50715 -4.58800 48 ft 23 kts 121°
2026-05-05 01:00 55.50626 -4.58539 49 ft 25 kts 121°
2026-05-05 01:00 55.50539 -4.58281 51 ft 24 kts 121°
2026-05-05 01:01 55.50458 -4.58025 53 ft 24 kts 117°
2026-05-05 01:01 55.50370 -4.57817 51 ft 14 kts 163°
2026-05-05 01:01 55.50344 -4.57836 49 ft 1 kts 253°
2026-05-05 01:01 55.50344 -4.57842 49 ft 1 kts 265°
2026-05-05 01:02 55.50351 -4.57856 50 ft 1 kts 319°
2026-05-05 01:02 55.50362 -4.57871 57 ft 2 kts 321°
2026-05-05 01:02 55.50373 -4.57886 51 ft 2 kts 321°
2026-05-05 01:02 55.50384 -4.57901 50 ft 2 kts 320°
2026-05-05 01:03 55.50392 -4.57919 52 ft 2 kts 308°
2026-05-05 01:03 55.50417 -4.57984 53 ft 18 kts 304°
2026-05-05 01:03 55.50612 -4.58521 49 ft 90 kts 301°
2026-05-05 01:03 55.51070 -4.59848 43 ft 162 kts 300°
2026-05-05 01:04 55.51726 -4.61729 633 ft 191 kts 300°
2026-05-05 01:04 55.53018 -4.66264 2365 ft 218 kts 281°
2026-05-05 01:04 55.53014 -4.68921 3164 ft 220 kts 257°
2026-05-05 01:05 55.52345 -4.71350 3955 ft 225 kts 231°
2026-05-05 01:05 55.51102 -4.73036 4747 ft 231 kts 205°
2026-05-05 01:05 55.49534 -4.73780 5454 ft 236 kts 192°
2026-05-05 01:05 55.47905 -4.74192 5850 ft 239 kts 190°
2026-05-05 01:06 55.46254 -4.74561 5935 ft 241 kts 190°
2026-05-05 01:06 55.44513 -4.74796 5942 ft 265 kts 179°
2026-05-05 01:06 55.42708 -4.73945 5938 ft 277 kts 153°
2026-05-05 01:06 55.41243 -4.71722 5945 ft 284 kts 131°
2026-05-05 01:07 55.40035 -4.68970 5945 ft 284 kts 127°
2026-05-05 01:07 55.38878 -4.66145 5945 ft 286 kts 127°
2026-05-05 01:07 55.37711 -4.63325 5949 ft 285 kts 128°
2026-05-05 01:07 55.36541 -4.60536 5946 ft 284 kts 128°
2026-05-05 01:08 55.35391 -4.57719 5945 ft 285 kts 123°
2026-05-05 01:08 55.34651 -4.54496 6178 ft 287 kts 104°
2026-05-05 01:08 55.34321 -4.51044 6776 ft 289 kts 96°
2026-05-05 01:08 55.34173 -4.47511 7604 ft 292 kts 93°
2026-05-05 01:09 55.34101 -4.43944 8446 ft 294 kts 91°
2026-05-05 01:09 55.34045 -4.40344 9247 ft 297 kts 91°
2026-05-05 01:09 55.33979 -4.36705 10025 ft 301 kts 92°
2026-05-05 01:09 55.33891 -4.32971 10500 ft 316 kts 92°
2026-05-05 01:10 55.33777 -4.28998 10783 ft 337 kts 93°
2026-05-05 01:10 55.33639 -4.24782 11048 ft 356 kts 94°
2026-05-05 01:10 55.33484 -4.20351 11462 ft 369 kts 94°
2026-05-05 01:10 55.33320 -4.15819 12084 ft 375 kts 94°
2026-05-05 01:11 55.33152 -4.11229 12751 ft 380 kts 94°
2026-05-05 01:11 55.33134 -4.06582 13419 ft 383 kts 86°
2026-05-05 01:11 55.33467 -4.01927 14077 ft 387 kts 81°
2026-05-05 01:11 55.33948 -3.97271 14736 ft 390 kts 78°
2026-05-05 01:12 55.34512 -3.92604 15370 ft 393 kts 77°
2026-05-05 01:12 55.35122 -3.87908 15998 ft 397 kts 76°
2026-05-05 01:12 55.35749 -3.83179 16606 ft 400 kts 76°
2026-05-05 01:12 55.36380 -3.78405 17188 ft 404 kts 77°
2026-05-05 01:13 55.37009 -3.73575 17728 ft 408 kts 77°
2026-05-05 01:13 55.37634 -3.68697 18261 ft 411 kts 77°
2026-05-05 01:13 55.38257 -3.63780 18812 ft 414 kts 77°
2026-05-05 01:13 55.38878 -3.58824 19349 ft 417 kts 77°
2026-05-05 01:14 55.39501 -3.53826 19848 ft 421 kts 77°
2026-05-05 01:14 55.40126 -3.48792 20357 ft 424 kts 77°
2026-05-05 01:14 55.40753 -3.43713 20855 ft 427 kts 77°
2026-05-05 01:14 55.41383 -3.38594 21318 ft 431 kts 77°
2026-05-05 01:15 55.42017 -3.33430 21754 ft 434 kts 77°
2026-05-05 01:15 55.42654 -3.28230 22188 ft 437 kts 77°
2026-05-05 01:15 55.43294 -3.22994 22634 ft 440 kts 77°
2026-05-05 01:15 55.43937 -3.17726 23061 ft 442 kts 77°
2026-05-05 01:16 55.44580 -3.12423 23483 ft 445 kts 78°
2026-05-05 01:16 55.45330 -3.07142 23907 ft 447 kts 72°
2026-05-05 01:16 55.46450 -3.02036 24290 ft 449 kts 64°
2026-05-05 01:16 55.48006 -2.97268 24707 ft 451 kts 54°
2026-05-05 01:17 55.49975 -2.92972 25098 ft 453 kts 47°
2026-05-05 01:17 55.52126 -2.88903 25483 ft 455 kts 45°
2026-05-05 01:17 55.54357 -2.84942 25869 ft 457 kts 44°
2026-05-05 01:17 55.56628 -2.81023 26250 ft 459 kts 43°
2026-05-05 01:18 55.58922 -2.77087 26625 ft 462 kts 43°
2026-05-05 01:18 55.61230 -2.73111 26975 ft 464 kts 43°
2026-05-05 01:18 55.63536 -2.69105 27319 ft 467 kts 44°
2026-05-05 01:18 55.65840 -2.65070 27669 ft 469 kts 44°
2026-05-05 01:19 55.68156 -2.60990 27992 ft 472 kts 44°
2026-05-05 01:19 55.70480 -2.56879 28346 ft 474 kts 44°
2026-05-05 01:19 55.72812 -2.52740 28667 ft 476 kts 44°
2026-05-05 01:19 55.75154 -2.48576 28986 ft 479 kts 44°
2026-05-05 01:20 55.77507 -2.44387 29275 ft 481 kts 44°
2026-05-05 01:20 55.79870 -2.40171 29550 ft 484 kts 44°
2026-05-05 01:20 55.82244 -2.35929 29860 ft 486 kts 44°
2026-05-05 01:20 55.84629 -2.31656 30168 ft 488 kts 44°
2026-05-05 01:21 55.87020 -2.27367 30453 ft 490 kts 44°
2026-05-05 01:21 55.89403 -2.23029 30735 ft 492 kts 47°
2026-05-05 01:21 55.91554 -2.18288 31079 ft 493 kts 53°
2026-05-05 01:21 55.93565 -2.13360 31495 ft 491 kts 54°
2026-05-05 01:22 55.95525 -2.08391 31924 ft 490 kts 54°
2026-05-05 01:22 55.97450 -2.03408 32335 ft 488 kts 55°
2026-05-05 01:22 55.99360 -1.98411 32693 ft 488 kts 55°
2026-05-05 01:22 56.01262 -1.93411 33063 ft 487 kts 55°
2026-05-05 01:23 56.03161 -1.88415 33417 ft 487 kts 55°
2026-05-05 01:23 56.05057 -1.83430 33743 ft 486 kts 55°
2026-05-05 01:23 56.06952 -1.78443 34068 ft 485 kts 55°
2026-05-05 01:23 56.08844 -1.73459 34389 ft 485 kts 55°
2026-05-05 01:24 56.10732 -1.68478 34693 ft 484 kts 55°
2026-05-05 01:24 56.12620 -1.63490 35009 ft 484 kts 55°
2026-05-05 01:24 56.14502 -1.58509 35320 ft 483 kts 55°
2026-05-05 01:24 56.16379 -1.53534 35616 ft 482 kts 55°
2026-05-05 01:25 56.18250 -1.48560 35880 ft 482 kts 55°
2026-05-05 01:25 56.20116 -1.43587 36126 ft 482 kts 55°
2026-05-05 01:25 56.21981 -1.38608 36383 ft 481 kts 55°
2026-05-05 01:25 56.23845 -1.33628 36613 ft 481 kts 55°
2026-05-05 01:26 56.25706 -1.28642 36811 ft 482 kts 55°
2026-05-05 01:26 56.27566 -1.23645 37043 ft 482 kts 55°
2026-05-05 01:26 56.29421 -1.18645 37235 ft 481 kts 56°
2026-05-05 01:26 56.31277 -1.13636 37440 ft 482 kts 56°
2026-05-05 01:27 56.33131 -1.08625 37678 ft 482 kts 56°
2026-05-05 01:27 56.34983 -1.03610 37896 ft 481 kts 56°
2026-05-05 01:27 56.36832 -0.98591 38089 ft 482 kts 56°
2026-05-05 01:27 56.38680 -0.93566 38268 ft 482 kts 56°
2026-05-05 01:28 56.40527 -0.88534 38467 ft 482 kts 56°
2026-05-05 01:28 56.42372 -0.83499 38638 ft 482 kts 56°
2026-05-05 01:28 56.44215 -0.78457 38827 ft 482 kts 56°
2026-05-05 01:28 56.46055 -0.73409 38971 ft 482 kts 56°
2026-05-05 01:29 56.49743 -0.63264 38998 ft 484 kts 56°
2026-05-05 01:29 56.53420 -0.53106 39002 ft 483 kts 56°
2026-05-05 01:30 56.57088 -0.42932 38999 ft 483 kts 56°
2026-05-05 01:30 56.60747 -0.32737 38998 ft 483 kts 56°
2026-05-05 01:31 56.64398 -0.22525 39003 ft 483 kts 56°
2026-05-05 01:31 56.68044 -0.12288 39003 ft 483 kts 56°
2026-05-05 01:32 56.71678 -0.02030 39002 ft 483 kts 56°
2026-05-05 01:32 56.75302 0.08245 39007 ft 483 kts 57°
2026-05-05 01:33 56.78921 0.18535 38998 ft 483 kts 57°
2026-05-05 01:33 56.82530 0.28845 38999 ft 483 kts 57°
2026-05-05 01:34 56.86130 0.39178 39001 ft 483 kts 57°
2026-05-05 01:34 56.89721 0.49523 38998 ft 483 kts 57°
2026-05-05 01:35 56.93305 0.59896 38998 ft 483 kts 57°
2026-05-05 01:35 56.96883 0.70289 38998 ft 483 kts 57°
2026-05-05 01:36 57.00450 0.80703 39000 ft 483 kts 57°
2026-05-05 01:36 57.04005 0.91138 39002 ft 483 kts 57°
2026-05-05 01:37 57.07554 1.01592 38999 ft 483 kts 57°
2026-05-05 01:37 57.11093 1.12060 38999 ft 483 kts 57°
2026-05-05 01:38 57.14624 1.22552 39003 ft 483 kts 57°
2026-05-05 01:38 57.18145 1.33062 39001 ft 483 kts 58°
2026-05-05 01:39 57.21660 1.43597 38998 ft 483 kts 58°
2026-05-05 01:39 57.25165 1.54150 38998 ft 483 kts 58°
2026-05-05 01:40 57.28662 1.64724 39000 ft 483 kts 58°
2026-05-05 01:40 57.32149 1.75315 39002 ft 483 kts 58°
2026-05-05 01:41 57.35627 1.85926 38998 ft 483 kts 58°
2026-05-05 01:41 57.39097 1.96561 39001 ft 483 kts 58°
2026-05-05 01:42 57.42558 2.07216 39000 ft 483 kts 58°
2026-05-05 01:42 57.46010 2.17890 39002 ft 483 kts 58°
2026-05-05 01:43 57.49452 2.28586 38998 ft 483 kts 58°
2026-05-05 01:43 57.52886 2.39300 38998 ft 483 kts 58°
2026-05-05 01:44 57.56312 2.50035 38998 ft 483 kts 59°
2026-05-05 01:44 57.59725 2.60787 38998 ft 483 kts 59°
2026-05-05 01:45 57.63132 2.71563 39000 ft 483 kts 59°
2026-05-05 01:45 57.66530 2.82354 39000 ft 483 kts 59°
2026-05-05 01:46 57.69918 2.93170 39000 ft 483 kts 59°
2026-05-05 01:46 57.73297 3.04010 39000 ft 483 kts 59°
2026-05-05 01:47 57.76665 3.14867 38999 ft 483 kts 59°
2026-05-05 01:47 57.80026 3.25744 38998 ft 483 kts 59°
2026-05-05 01:48 57.83377 3.36643 38998 ft 483 kts 59°
2026-05-05 01:48 57.86719 3.47562 38998 ft 484 kts 59°
2026-05-05 01:49 57.90053 3.58508 39008 ft 483 kts 59°
2026-05-05 01:49 57.93550 3.69268 39001 ft 483 kts 57°
2026-05-05 01:50 57.97114 3.79961 39003 ft 483 kts 57°
2026-05-05 01:50 58.00663 3.90682 38998 ft 483 kts 57°
2026-05-05 01:51 58.04201 4.01428 39003 ft 483 kts 57°
2026-05-05 01:51 58.07727 4.12195 39006 ft 483 kts 58°
2026-05-05 01:52 58.11244 4.22980 39000 ft 483 kts 58°
2026-05-05 01:52 58.14751 4.33789 38998 ft 483 kts 58°
2026-05-05 01:53 58.18247 4.44610 38998 ft 483 kts 58°
2026-05-05 01:53 58.21739 4.55463 39003 ft 483 kts 58°
2026-05-05 01:54 58.25220 4.66337 39009 ft 483 kts 58°
2026-05-05 01:54 58.28691 4.77233 39003 ft 483 kts 58°
2026-05-05 01:55 58.32156 4.88154 39001 ft 483 kts 58°
2026-05-05 01:55 58.35611 4.99096 39000 ft 483 kts 58°
2026-05-05 01:56 58.39056 5.10060 39001 ft 483 kts 58°
2026-05-05 01:56 58.42491 5.21044 38998 ft 483 kts 58°
2026-05-05 01:57 58.45917 5.32052 38998 ft 483 kts 59°
2026-05-05 01:57 58.49333 5.43079 39002 ft 483 kts 59°
2026-05-05 01:58 58.52740 5.54125 38998 ft 483 kts 59°
2026-05-05 01:58 58.56138 5.65193 39001 ft 483 kts 59°
2026-05-05 01:59 58.59527 5.76286 38998 ft 484 kts 59°
2026-05-05 01:59 58.62914 5.87428 38998 ft 485 kts 59°
2026-05-05 02:00 58.66299 5.98618 39002 ft 485 kts 59°
2026-05-05 02:00 58.69675 6.09828 39001 ft 486 kts 59°
2026-05-05 02:01 58.73040 6.21057 38999 ft 485 kts 59°
2026-05-05 02:01 58.76393 6.32302 38998 ft 486 kts 59°
2026-05-05 02:02 58.79750 6.43613 38997 ft 488 kts 59°
2026-05-05 02:02 58.83105 6.54977 39000 ft 488 kts 60°
2026-05-05 02:03 58.86453 6.66369 38998 ft 489 kts 60°
2026-05-05 02:03 58.88121 6.72066 38780 ft 488 kts 60°
2026-05-05 02:03 58.89785 6.77764 38315 ft 486 kts 60°
2026-05-05 02:04 58.91432 6.83418 37956 ft 481 kts 60°
2026-05-05 02:04 58.93064 6.89034 37537 ft 478 kts 60°
2026-05-05 02:04 58.94685 6.94626 37062 ft 477 kts 60°
2026-05-05 02:04 58.96303 7.00216 36533 ft 476 kts 60°
2026-05-05 02:05 58.97918 7.05808 35976 ft 477 kts 60°
2026-05-05 02:05 58.99531 7.11413 35395 ft 477 kts 60°
2026-05-05 02:05 59.01142 7.17026 34814 ft 477 kts 60°
2026-05-05 02:05 59.02749 7.22639 34335 ft 476 kts 60°
2026-05-05 02:06 59.04348 7.28236 33897 ft 474 kts 60°
2026-05-05 02:06 59.05935 7.33803 33455 ft 470 kts 60°
2026-05-05 02:06 59.07510 7.39346 33022 ft 467 kts 60°
2026-05-05 02:06 59.09070 7.44844 32611 ft 463 kts 60°
2026-05-05 02:07 59.10614 7.50302 32227 ft 459 kts 60°
2026-05-05 02:07 59.12143 7.55718 31832 ft 456 kts 60°
2026-05-05 02:07 59.13656 7.61095 31400 ft 453 kts 60°
2026-05-05 02:07 59.15162 7.66453 30946 ft 451 kts 60°
2026-05-05 02:08 59.16659 7.71795 30494 ft 449 kts 60°
2026-05-05 02:08 59.18144 7.77106 30076 ft 445 kts 60°
2026-05-05 02:08 59.19616 7.82380 29666 ft 442 kts 61°
2026-05-05 02:08 59.21075 7.87624 29280 ft 439 kts 61°
2026-05-05 02:09 59.22521 7.92830 28879 ft 436 kts 61°
2026-05-05 02:09 59.23954 7.98002 28471 ft 433 kts 61°
2026-05-05 02:09 59.25373 8.03137 28056 ft 430 kts 61°
2026-05-05 02:09 59.26784 8.08250 27667 ft 427 kts 61°
2026-05-05 02:10 59.28182 8.13329 27270 ft 424 kts 61°
2026-05-05 02:10 59.29571 8.18382 26850 ft 421 kts 61°
2026-05-05 02:10 59.30952 8.23422 26402 ft 419 kts 61°
2026-05-05 02:10 59.32321 8.28434 25988 ft 417 kts 61°
2026-05-05 02:11 59.33681 8.33415 25577 ft 414 kts 61°
2026-05-05 02:11 59.35026 8.38359 25191 ft 411 kts 61°
2026-05-05 02:11 59.36361 8.43277 24770 ft 408 kts 61°
2026-05-05 02:11 59.37687 8.48171 24343 ft 406 kts 61°
2026-05-05 02:12 59.39001 8.53030 23979 ft 402 kts 61°
2026-05-05 02:12 59.41594 8.62647 23142 ft 398 kts 61°
2026-05-05 02:12 59.42878 8.67426 22728 ft 395 kts 61°
2026-05-05 02:13 59.44151 8.72176 22315 ft 392 kts 62°
2026-05-05 02:13 59.45415 8.76896 21917 ft 390 kts 62°
2026-05-05 02:13 59.46666 8.81583 21502 ft 387 kts 62°
2026-05-05 02:13 59.47911 8.86258 21044 ft 386 kts 62°
2026-05-05 02:14 59.49150 8.90922 20604 ft 385 kts 62°
2026-05-05 02:14 59.50384 8.95568 20173 ft 383 kts 62°
2026-05-05 02:14 59.51607 9.00187 19747 ft 380 kts 62°
2026-05-05 02:14 59.52822 9.04782 19377 ft 377 kts 62°
2026-05-05 02:15 59.54022 9.09332 18993 ft 374 kts 62°
2026-05-05 02:15 59.55212 9.13850 18590 ft 371 kts 62°
2026-05-05 02:15 59.56390 9.18337 18186 ft 368 kts 62°
2026-05-05 02:15 59.57558 9.22791 17804 ft 365 kts 62°
2026-05-05 02:16 59.58716 9.27218 17380 ft 363 kts 62°
2026-05-05 02:16 59.59867 9.31624 16949 ft 361 kts 62°
2026-05-05 02:16 59.61008 9.36004 16536 ft 359 kts 62°
2026-05-05 02:17 59.63108 9.44086 15757 ft 356 kts 62°
2026-05-05 02:17 59.64232 9.48420 15336 ft 354 kts 62°
2026-05-05 02:17 59.65346 9.52728 14928 ft 351 kts 62°
2026-05-05 02:17 59.66450 9.57004 14490 ft 349 kts 62°
2026-05-05 02:18 59.67545 9.61259 14060 ft 347 kts 62°
2026-05-05 02:18 59.68634 9.65492 13668 ft 344 kts 62°
2026-05-05 02:18 59.69712 9.69692 13261 ft 342 kts 62°
2026-05-05 02:18 59.70781 9.73866 12833 ft 340 kts 62°
2026-05-05 02:19 59.71844 9.78023 12399 ft 338 kts 62°
2026-05-05 02:19 59.72899 9.82153 12001 ft 335 kts 62°
2026-05-05 02:19 59.73945 9.86258 11591 ft 333 kts 62°
2026-05-05 02:19 59.74984 9.90343 11177 ft 331 kts 62°
2026-05-05 02:20 59.76012 9.94394 10783 ft 328 kts 62°
2026-05-05 02:20 59.77018 9.98366 10607 ft 318 kts 62°
2026-05-05 02:20 59.77992 10.02220 10454 ft 309 kts 62°
2026-05-05 02:20 59.78945 10.05990 10143 ft 305 kts 63°
2026-05-05 02:21 59.79887 10.09734 9808 ft 303 kts 63°
2026-05-05 02:21 59.80825 10.13459 9439 ft 302 kts 63°
2026-05-05 02:21 59.81759 10.17175 9088 ft 301 kts 62°
2026-05-05 02:21 59.82687 10.20870 8764 ft 298 kts 62°
2026-05-05 02:22 59.83603 10.24532 8413 ft 296 kts 63°
2026-05-05 02:22 59.84514 10.28184 8082 ft 295 kts 63°
2026-05-05 02:22 59.85421 10.31817 7730 ft 293 kts 63°
2026-05-05 02:22 59.86322 10.35441 7381 ft 293 kts 63°
2026-05-05 02:23 59.87218 10.39051 7043 ft 291 kts 63°
2026-05-05 02:23 59.88110 10.42641 6697 ft 289 kts 63°
2026-05-05 02:23 59.88996 10.46208 6358 ft 287 kts 63°
2026-05-05 02:23 59.89875 10.49757 6018 ft 285 kts 63°
2026-05-05 02:24 59.90750 10.53294 5662 ft 285 kts 63°
2026-05-05 02:24 59.91619 10.56815 5340 ft 283 kts 63°
2026-05-05 02:24 59.92471 10.60274 5202 ft 272 kts 63°
2026-05-05 02:24 59.93284 10.63578 5197 ft 258 kts 63°
2026-05-05 02:25 59.94055 10.66732 5194 ft 251 kts 63°
2026-05-05 02:25 59.94818 10.69850 5194 ft 250 kts 63°
2026-05-05 02:25 59.95580 10.72951 5194 ft 250 kts 63°
2026-05-05 02:25 59.96344 10.76061 5191 ft 250 kts 63°
2026-05-05 02:26 59.97095 10.79186 5190 ft 250 kts 66°
2026-05-05 02:26 59.97644 10.82466 5208 ft 249 kts 74°
2026-05-05 02:26 59.98075 10.85795 5203 ft 249 kts 75°
2026-05-05 02:26 59.98487 10.89146 5003 ft 246 kts 76°
2026-05-05 02:27 59.98887 10.92416 4783 ft 240 kts 75°
2026-05-05 02:27 59.99519 10.95403 4559 ft 231 kts 50°
2026-05-05 02:27 60.00774 10.97219 4337 ft 221 kts 20°
2026-05-05 02:27 60.02206 10.98139 4115 ft 213 kts 12°
2026-05-05 02:28 60.03624 10.98915 3838 ft 210 kts 13°
2026-05-05 02:28 60.05024 10.99699 3541 ft 209 kts 13°
2026-05-05 02:28 60.06427 11.00483 3152 ft 211 kts 12°
2026-05-05 02:28 60.07834 11.01261 2825 ft 209 kts 13°
2026-05-05 02:29 60.09218 11.02044 2553 ft 205 kts 13°
2026-05-05 02:29 60.10579 11.02832 2284 ft 202 kts 13°
2026-05-05 02:29 60.11912 11.03598 2013 ft 197 kts 13°
2026-05-05 02:29 60.13187 11.04329 1768 ft 184 kts 13°
2026-05-05 02:30 60.14374 11.05007 1534 ft 171 kts 13°
2026-05-05 02:30 60.15448 11.05628 1381 ft 154 kts 12°
2026-05-05 02:30 60.16444 11.06222 1144 ft 144 kts 15°
2026-05-05 02:30 60.17341 11.06751 963 ft 131 kts 10°
2026-05-05 02:31 60.18200 11.07194 721 ft 123 kts 15°
2026-05-05 02:31 60.18956 11.07615 686 ft 105 kts 15°
2026-05-05 02:31 60.19615 11.07978 682 ft 93 kts 15°
2026-05-05 02:31 60.20116 11.08329 679 ft 60 kts 30°
2026-05-05 02:32 60.20298 11.08749 679 ft 35 kts 46°
2026-05-05 02:32 60.20510 11.08924 680 ft 30 kts 16°
2026-05-05 02:32 60.20655 11.09132 677 ft 26 kts 55°
2026-05-05 02:32 60.20784 11.09332 679 ft 22 kts 83°
2026-05-05 02:33 60.20762 11.09566 679 ft 11 kts 104°
2026-05-05 02:33 60.20778 11.09653 677 ft 1 kts 23°
2026-05-05 02:33 60.20787 11.09657 678 ft 0 kts 14°